Flag for France Weather past 2 weeks in Marseille, France

Now
59 °F

Clear.


Feels Like: 59 °F
Forecast: 61 / 77 °F
Wind: 2 mph from South

Location: Marseille / Marignane

Current Time: Oct 2, 2014 at 6:36:34 AM

Latest Report: Oct 2, 2014 at 6:00 AM


Visibility: 10 mi

Pressure: 30.18 "Hg

Humidity: 94%

Dew point: 57 °F

Location of MarseilleLocation

Historic Weather in Marseille — Graph

°F

Marseille temperature yesterday

Maximum temperature yesterday: 79 °F (at 3:46 PM)
Minimum temperature yesterday: 63 °F (at 7:30 AM)
Average temperature yesterday: 69 °F

Past Weeks' High & Low Weather Summary

 TemperatureHumidityPressure
High86 °F (Sep 18, 3:00 PM)94% (Sep 20, 10:00 PM)30.27 "Hg (Sep 20, 10:00 PM)
Low52 °F (Sep 26, 5:30 AM)32% (Sep 28, 4:00 PM)29.80 "Hg (Sep 17, 10:00 AM)
Average70 °F68%30.05 "Hg
* Reported Sep 17 5:00 AM — Oct 2 5:30 AM, Marseille, Weather by CustomWeather, © 2014

Note: Actual official high and low records may vary slightly from our data, if they occured in-between our weather recording intervals... More about our weather records

Advertising

Marseille weather history for previous 24 hours

 ConditionsComfort  
Time TempWeatherWind HumidityBarometerVisibility
5:30 AM
Oct 2
61 °FClear.1 mph88%30.18 "Hg10 mi
5:00 AM61 °FClear.2 mph88%30.18 "Hg10 mi
4:30 AM61 °FClear.3 mph88%30.18 "HgN/A
4:00 AM59 °FClear.5 mph94%30.18 "HgN/A
3:30 AM61 °FClear.3 mph83%30.18 "HgN/A
3:00 AM61 °FClear.No wind88%30.18 "HgN/A
2:30 AM61 °FClear.2 mph88%30.18 "HgN/A
2:00 AM63 °FClear.3 mph83%30.18 "HgN/A
1:30 AM61 °FClear.3 mph88%30.18 "HgN/A
1:00 AM63 °FClear.5 mph83%30.18 "Hg10 mi
12:30 AM63 °FClear.6 mph83%30.18 "Hg10 mi
12:00 AM63 °FClear.3 mph83%30.18 "Hg10 mi
11:30 PM
Oct 1
66 °FClear.2 mph78%30.18 "Hg10 mi
11:00 PM66 °FClear.3 mph78%30.18 "Hg10 mi
10:30 PM66 °FClear.7 mph78%30.18 "Hg10 mi
10:00 PM70 °FClear.6 mph64%30.15 "Hg10 mi
9:30 PM70 °FClear.8 mph64%30.15 "Hg10 mi
9:00 PM72 °FClear.6 mph61%30.15 "Hg10 mi
8:30 PM72 °FClear.6 mph61%30.15 "Hg10 mi
8:00 PM73 °FSunny.7 mph57%30.15 "Hg10 mi
7:30 PM73 °FSunny.9 mph61%30.15 "Hg10 mi
7:00 PM75 °FSunny.10 mph57%30.15 "Hg10 mi
6:30 PM79 °FSunny.10 mph54%30.15 "Hg10 mi
6:00 PM79 °FSunny.10 mph54%30.15 "Hg10 mi
5:30 PM79 °FSunny.10 mph54%30.15 "Hg10 mi
5:00 PM79 °FScattered clouds.6 mph58%30.15 "HgN/A
4:30 PM77 °FScattered clouds.7 mph57%30.15 "HgN/A
4:00 PM77 °FScattered clouds.6 mph61%30.15 "HgN/A
3:46 PM79 °FScattered clouds.5 mph54%30.15 "HgN/A
3:00 PM77 °FScattered clouds.5 mph61%30.18 "HgN/A
2:30 PM75 °FScattered clouds.6 mph65%30.18 "HgN/A
2:00 PM75 °FPassing clouds.6 mph65%30.18 "HgN/A
1:30 PM73 °FPassing clouds.5 mph69%30.21 "HgN/A
1:00 PM72 °FPassing clouds.7 mph69%30.21 "HgN/A
12:30 PM70 °FPassing clouds.8 mph78%30.21 "HgN/A
12:00 PM70 °FScattered clouds.10 mph78%30.24 "HgN/A
11:30 AM68 °FPartly sunny.7 mph83%30.24 "HgN/A
11:00 AM66 °FPartly sunny.7 mph88%30.24 "HgN/A
10:30 AM66 °FPartly sunny.7 mph83%30.24 "HgN/A
10:00 AM66 °FScattered clouds.9 mph88%30.24 "HgN/A
9:30 AM66 °FScattered clouds.5 mph83%30.24 "HgN/A
9:00 AM64 °FScattered clouds.No wind94%30.21 "HgN/A
8:30 AM63 °FClear.2 mph88%30.21 "Hg10 mi
8:00 AM63 °FClear.5 mph94%30.21 "Hg10 mi
7:30 AM63 °FPassing clouds.5 mph88%30.21 "HgN/A
7:00 AM64 °FPassing clouds.No wind88%30.21 "HgN/A
6:30 AM64 °FPassing clouds.No wind88%30.21 "HgN/A
6:00 AM64 °FPartly cloudy.3 mph88%30.21 "HgN/A
Weather by CustomWeather, © 2014

See weather overviewHow to use our weather pages